Weather History for LKPD - November, 2013

Change the Weather History Date:

Wednesday, November 6, 2013

  Actual Average Record
Temperature  
Mean Temperature 42 °F -  
Max Temperature 48 °F - - ()
Min Temperature 35 °F - - ()
Degree Days  
Heating Degree Days 24    
Moisture  
Dew Point 37 °F    
Average Humidity 77    
Maximum Humidity 93    
Minimum Humidity 58    
Precipitation  
Precipitation 0.00 in - - ()
Sea Level Pressure  
Sea Level Pressure 29.56 in    
Wind  
Wind Speed 7 mph ()    
Max Wind Speed 18 mph    
Max Gust Speed 28 mph    
Visibility 5.9 miles    
Events Rain    
T = Trace of Precipitation, MM = Missing Value Source: Averaged Metar Reports

Daily Weather History Graph

Daily Weather History Graph

Search for Another Location

Airport or City:

Trip Planner

Search our weather history database for the weather conditions in past years. The results will help you decide how hot, cold, wet, or windy it might be!

Date:

Astronomy

Nov. 06, 2013 Rise Set
Actual Time 6:55 AM CET 4:25 PM CET
Civil Twilight 6:20 AM CET 5:00 PM CET
Nautical Twilight 5:41 AM CET 5:38 PM CET
Astronomical Twilight 5:04 AM CET 6:16 PM CET
Moon 10:02 AM CET (11/6) 7:02 PM CET (11/6)
Length of Visible Light 10h 39m
Length of Day
9h 30m
Waxing Crescent, 11% of the Moon is Illuminated
Nov 6
Waxing Crescent
Nov 10
First Quarter
Nov 17
Full
Nov 25
Last Quarter
Dec 3
New

Hourly Weather History & Observations

Time (CET) Temp. Windchill Dew Point Humidity Pressure Visibility Wind Dir Wind Speed Gust Speed Precip Events Conditions
12:00 AM 37.4 °F - 32.0 °F 81% 29.44 in - Calm Calm - N/A   Clear
1:00 AM 35.6 °F - 30.2 °F 81% 29.44 in - Variable 2.3 mph - N/A   Clear
2:00 AM 37.4 °F 33.8 °F 32.0 °F 81% 29.44 in - South 4.6 mph - N/A   Clear
3:00 AM 37.4 °F 34.9 °F 32.0 °F 81% 29.42 in - ESE 3.5 mph - N/A   Clear
4:00 AM 39.2 °F 33.0 °F 35.6 °F 87% 29.44 in 6.2 mi SW 9.2 mph - N/A   Overcast
5:00 AM 39.2 °F 35.0 °F 35.6 °F 87% 29.44 in 6.2 mi SW 5.8 mph - N/A Rain Light Rain
6:00 AM 41.0 °F 36.4 °F 37.4 °F 87% 29.44 in 6.2 mi SW 6.9 mph - N/A Rain Light Rain
7:00 AM 41.0 °F 33.5 °F 39.2 °F 93% 29.44 in 4.3 mi West 13.8 mph - N/A Rain Light Rain
8:00 AM 42.8 °F 36.6 °F 41.0 °F 93% 29.47 in 5.0 mi West 11.5 mph - N/A Rain Light Rain
9:00 AM 44.6 °F 39.2 °F 41.0 °F 87% 29.50 in 6.2 mi WSW 10.4 mph - N/A   Mostly Cloudy
10:00 AM 48.2 °F - 41.0 °F 76% 29.50 in - West 18.4 mph - N/A   Clear
11:00 AM 48.2 °F - 39.2 °F 71% 29.53 in 6.2 mi West 16.1 mph - N/A   Overcast
12:00 PM 48.2 °F - 37.4 °F 66% 29.53 in 6.2 mi West 13.8 mph 24.2 mph N/A   Overcast
1:00 PM 46.4 °F 39.8 °F 37.4 °F 71% 29.56 in 6.2 mi WNW 16.1 mph 27.6 mph N/A   Mostly Cloudy
2:00 PM 48.2 °F - 35.6 °F 62% 29.59 in - West 16.1 mph - N/A   Clear
3:00 PM 48.2 °F - 33.8 °F 58% 29.62 in - WNW 11.5 mph - N/A   Clear
4:00 PM 48.2 °F - 33.8 °F 58% 29.65 in - West 11.5 mph - N/A   Clear
5:00 PM 46.4 °F 44.3 °F 37.4 °F 71% 29.68 in - WSW 4.6 mph - N/A   Clear
6:00 PM 46.4 °F 42.9 °F 35.6 °F 66% 29.68 in - WSW 6.9 mph - N/A   Clear
7:00 PM 46.4 °F 43.5 °F 37.4 °F 71% 29.71 in - WSW 5.8 mph - N/A   Clear
8:00 PM 46.4 °F 43.5 °F 39.2 °F 76% 29.71 in 6.2 mi SW 5.8 mph - N/A   Overcast
9:00 PM 46.4 °F 42.9 °F 39.2 °F 76% 29.74 in 6.2 mi WSW 6.9 mph - N/A   Overcast
10:00 PM 46.4 °F 44.3 °F 41.0 °F 81% 29.74 in - WSW 4.6 mph - N/A   Clear
11:03 PM 46.4 °F 41.5 °F 42.8 °F 87% 29.77 in 6.2 mi SW 10.4 mph - N/A Rain Light Rain